| time (UTC) | temp F | wind direction | speed MPH | gust MPH | rain 1hr in | rain 24hr in | rain mn in | humidity % | barometer mb |
| 20260507071601 | 55 | 204 | 4.0 | 8.0 | 0.00 | 0.00 | 0.00 | 95 | 1005.8 |
| 20260507071101 | 55 | 210 | 4.0 | 7.0 | 0.00 | 0.00 | 0.00 | 95 | 1006.0 |
| 20260507070601 | 55 | 217 | 4.0 | 9.0 | 0.00 | 0.00 | 0.00 | 95 | 1006.2 |
| 20260507070101 | 55 | 236 | 4.0 | 6.0 | 0.00 | 0.00 | 0.00 | 95 | 1006.0 |
| 20260507065601 | 55 | 198 | 2.0 | 4.0 | 0.00 | 0.00 | 0.00 | 94 | 1005.8 |
| 20260507065101 | 55 | 203 | 3.0 | 5.0 | 0.00 | 0.00 | 0.00 | 94 | 1005.7 |
| 20260507064601 | 55 | 183 | 1.0 | 3.0 | 0.00 | 0.00 | 0.00 | 94 | 1005.7 |
| 20260507064101 | 54 | 221 | 3.0 | 5.0 | 0.00 | 0.00 | 0.00 | 94 | 1005.8 |
| 20260507063601 | 54 | 227 | 2.0 | 6.0 | 0.00 | 0.00 | 0.00 | 94 | 1005.9 |
| 20260507063101 | 54 | 221 | 3.0 | 8.0 | 0.00 | 0.00 | 0.00 | 94 | 1005.9 |
| 20260507062601 | 54 | 222 | 5.0 | 10.0 | 0.00 | 0.00 | 0.00 | 94 | 1006.0 |
| 20260507062101 | 55 | 213 | 5.0 | 10.0 | 0.00 | 0.00 | 0.00 | 94 | 1005.9 |
| 20260507061601 | 55 | 232 | 7.0 | 11.0 | 0.00 | 0.00 | 0.00 | 94 | 1006.1 |
| 20260507061102 | 55 | 219 | 7.0 | 11.0 | 0.00 | 0.00 | 0.00 | 94 | 1005.8 |
| 20260507060601 | 55 | 233 | 6.0 | 12.0 | 0.00 | 0.00 | 0.00 | 94 | 1006.1 |
| 20260507060101 | 55 | 244 | 6.0 | 14.0 | 0.00 | 0.00 | 0.00 | 94 | 1006.2 |
| 20260507055601 | 55 | 216 | 7.0 | 16.0 | 0.00 | 0.00 | 0.00 | 94 | 1005.8 |
| 20260507055101 | 55 | 215 | 7.0 | 14.0 | 0.00 | 0.00 | 0.00 | 94 | 1005.9 |
| 20260507054702 | 55 | 219 | 7.0 | 14.0 | 0.00 | 0.00 | 0.00 | 94 | 1006.1 |
| 20260507054101 | 55 | 211 | 9.0 | 16.0 | 0.00 | 0.00 | 0.00 | 94 | 1006.2 |
| 20260507053601 | 55 | 215 | 7.0 | 15.0 | 0.00 | 0.00 | 0.00 | 94 | 1006.2 |
| 20260507053100 | 55 | 216 | 9.0 | 18.0 | 0.00 | 0.00 | 0.00 | 94 | 1006.3 |
| 20260507052601 | 55 | 215 | 9.0 | 16.0 | 0.00 | 0.00 | 0.00 | 94 | 1006.5 |
| 20260507052100 | 55 | 229 | 9.0 | 21.0 | 0.00 | 0.00 | 0.00 | 94 | 1006.6 |
| 20260507051601 | 55 | 232 | 11.0 | 22.0 | 0.00 | 0.00 | 0.00 | 94 | 1006.7 |
| 20260507051101 | 56 | 228 | 11.0 | 19.0 | 0.00 | 0.00 | 0.00 | 94 | 1006.9 |
| 20260507050601 | 56 | 222 | 9.0 | 17.0 | 0.00 | 0.00 | 0.00 | 94 | 1006.8 |
| 20260507050100 | 56 | 223 | 8.0 | 19.0 | 0.00 | 0.00 | 0.00 | 94 | 1006.5 |
| 20260507045601 | 56 | 222 | 12.0 | 20.0 | 0.00 | 0.00 | 0.00 | 94 | 1006.6 |
| 20260507045100 | 56 | 225 | 10.0 | 20.0 | 0.00 | 0.00 | 0.00 | 94 | 1006.6 |
| 20260507044601 | 56 | 224 | 12.0 | 21.0 | 0.00 | 0.00 | 0.00 | 94 | 1006.7 |
| 20260507044101 | 56 | 231 | 11.0 | 20.0 | 0.00 | 0.00 | 0.00 | 94 | 1006.7 |
| 20260507043601 | 56 | 236 | 12.0 | 24.0 | 0.00 | 0.00 | 0.00 | 94 | 1006.8 |
| 20260507043101 | 56 | 233 | 14.0 | 22.0 | 0.00 | 0.00 | 0.00 | 94 | 1006.8 |
| 20260507042601 | 56 | 235 | 14.0 | 26.0 | 0.00 | 0.00 | 0.00 | 94 | 1006.8 |
| 20260507042101 | 56 | 237 | 13.0 | 22.0 | 0.00 | 0.00 | 0.00 | 93 | 1007.0 |
| 20260507041602 | 57 | 232 | 12.0 | 23.0 | 0.00 | 0.00 | 0.00 | 94 | 1007.1 |
| 20260507041102 | 57 | 237 | 15.0 | 27.0 | 0.00 | 0.00 | 0.00 | 94 | 1007.1 |
| 20260507040602 | 57 | 237 | 11.0 | 20.0 | 0.00 | 0.00 | 0.00 | 94 | 1007.3 |
| 20260507035602 | 57 | 226 | 9.0 | 19.0 | 0.00 | 0.00 | 0.00 | 94 | 1007.1 |
| 20260507035102 | 57 | 224 | 9.0 | 21.0 | 0.00 | 0.00 | 0.00 | 94 | 1007.0 |
| 20260507034602 | 57 | 220 | 10.0 | 23.0 | 0.00 | 0.00 | 0.00 | 93 | 1007.1 |
| 20260507034102 | 57 | 220 | 9.0 | 23.0 | 0.00 | 0.00 | 0.00 | 94 | 1007.1 |
| 20260507033602 | 57 | 218 | 12.0 | 24.0 | 0.00 | 0.00 | 0.00 | 94 | 1007.1 |
| 20260507033102 | 56 | 223 | 11.0 | 21.0 | 0.00 | 0.00 | 0.00 | 93 | 1007.2 |
| 20260507032602 | 57 | 224 | 12.0 | 23.0 | 0.00 | 0.00 | 0.00 | 93 | 1007.0 |
| 20260507032102 | 57 | 223 | 11.0 | 23.0 | 0.00 | 0.00 | 0.00 | 93 | 1007.0 |
| 20260507031602 | 57 | 222 | 9.0 | 19.0 | 0.00 | 0.00 | 0.00 | 93 | 1006.8 |
| 20260507031102 | 57 | 224 | 11.0 | 25.0 | 0.00 | 0.00 | 0.00 | 93 | 1006.9 |
| 20260507030602 | 57 | 219 | 11.0 | 21.0 | 0.00 | 0.00 | 0.00 | 93 | 1006.7 |
| 20260507025600 | 57 | 218 | 11.0 | 24.0 | 0.00 | 0.00 | 0.00 | 93 | 1006.8 |
| 20260507025102 | 57 | 222 | 10.0 | 21.0 | 0.00 | 0.00 | 0.00 | 93 | 1007.0 |
| 20260507024602 | 57 | 220 | 12.0 | 23.0 | 0.00 | 0.00 | 0.00 | 93 | 1007.1 |
| 20260507024102 | 57 | 220 | 14.0 | 24.0 | 0.00 | 0.00 | 0.00 | 93 | 1007.3 |
| 20260507023601 | 57 | 219 | 12.0 | 22.0 | 0.00 | 0.00 | 0.00 | 93 | 1007.5 |
| 20260507023102 | 57 | 218 | 14.0 | 22.0 | 0.00 | 0.00 | 0.00 | 93 | 1007.5 |
| 20260507022602 | 57 | 223 | 11.0 | 25.0 | 0.00 | 0.00 | 0.00 | 94 | 1007.6 |
| 20260507022102 | 57 | 228 | 11.0 | 23.0 | 0.00 | 0.00 | 0.00 | 93 | 1007.6 |
| 20260507021602 | 57 | 226 | 11.0 | 21.0 | 0.00 | 0.00 | 0.00 | 94 | 1007.8 |
| 20260507021102 | 57 | 227 | 14.0 | 24.0 | 0.00 | 0.00 | 0.00 | 94 | 1007.9 |
| 20260507020602 | 57 | 221 | 10.0 | 23.0 | 0.00 | 0.00 | 0.00 | 94 | 1007.8 |
| 20260507020108 | 57 | 219 | 13.0 | 24.0 | 0.00 | 0.00 | 0.00 | 94 | 1007.7 |
| 20260507015602 | 57 | 227 | 12.0 | 23.0 | 0.00 | 0.00 | 0.00 | 94 | 1007.9 |
| 20260507015100 | 57 | 230 | 12.0 | 23.0 | 0.00 | 0.00 | 0.00 | 94 | 1007.9 |
| 20260507014602 | 57 | 219 | 14.0 | 26.0 | 0.00 | 0.00 | 0.00 | 94 | 1008.0 |
| 20260507014102 | 57 | 222 | 10.0 | 35.0 | 0.00 | 0.00 | 0.00 | 94 | 1008.1 |
| 20260507013602 | 57 | 220 | 12.0 | 28.0 | 0.00 | 0.00 | 0.00 | 94 | 1008.0 |
| 20260507013102 | 57 | 228 | 12.0 | 32.0 | 0.00 | 0.00 | 0.00 | 94 | 1008.1 |
| 20260507012602 | 57 | 227 | 15.0 | 29.0 | 0.00 | 0.00 | 0.00 | 94 | 1008.0 |
| 20260507012102 | 57 | 215 | 12.0 | 32.0 | 0.00 | 0.00 | 0.00 | 94 | 1007.7 |
| 20260507011602 | 57 | 217 | 14.0 | 28.0 | 0.00 | 0.00 | 0.00 | 94 | 1007.9 |
| 20260507011100 | 57 | 220 | 15.0 | 29.0 | 0.00 | 0.00 | 0.00 | 94 | 1008.0 |
| 20260507010602 | 57 | 224 | 10.0 | 29.0 | 0.00 | 0.00 | 0.00 | 94 | 1008.0 |
| 20260507010101 | 57 | 214 | 9.0 | 23.0 | 0.00 | 0.00 | 0.00 | 94 | 1007.9 |
| 20260507005602 | 57 | 222 | 16.0 | 30.0 | 0.00 | 0.00 | 0.00 | 94 | 1008.0 |
| 20260507005100 | 57 | 208 | 10.0 | 26.0 | 0.00 | 0.00 | 0.00 | 94 | 1008.0 |
| 20260507004602 | 56 | 214 | 10.0 | 29.0 | 0.00 | 0.00 | 0.00 | 93 | 1008.0 |
| 20260507004101 | 56 | 214 | 13.0 | 30.0 | 0.00 | 0.00 | 0.00 | 94 | 1008.0 |
| 20260507003601 | 56 | 215 | 13.0 | 27.0 | 0.00 | 0.00 | 0.00 | 93 | 1008.0 |
| 20260507003101 | 56 | 216 | 13.0 | 26.0 | 0.00 | 0.00 | 0.00 | 93 | 1008.1 |
| 20260507002602 | 56 | 208 | 17.0 | 30.0 | 0.00 | 0.00 | 0.00 | 93 | 1007.9 |
| 20260507002101 | 56 | 204 | 13.0 | 24.0 | 0.00 | 0.00 | 0.00 | 93 | 1007.9 |
| 20260507001602 | 56 | 211 | 11.0 | 26.0 | 0.00 | 0.00 | 0.00 | 93 | 1008.0 |
| 20260507001100 | 56 | 211 | 8.0 | 30.0 | 0.00 | 0.00 | 0.00 | 93 | 1007.9 |
| 20260507000602 | 56 | 222 | 12.0 | 25.0 | 0.00 | 0.00 | 0.00 | 93 | 1008.1 |
| 20260507000101 | 56 | 209 | 12.0 | 32.0 | 0.00 | 0.00 | 0.00 | 92 | 1007.8 |
| 20260506235601 | 56 | 205 | 10.0 | 33.0 | 0.00 | 0.00 | 0.00 | 92 | 1007.9 |
| 20260506235101 | 56 | 202 | 12.0 | 32.0 | 0.00 | 0.00 | 0.00 | 92 | 1007.6 |
| 20260506234601 | 56 | 207 | 12.0 | 29.0 | 0.00 | 0.00 | 0.00 | 92 | 1008.0 |
| 20260506234101 | 56 | 213 | 13.0 | 30.0 | 0.00 | 0.00 | 0.00 | 92 | 1008.1 |
| 20260506233602 | 56 | 214 | 13.0 | 28.0 | 0.00 | 0.00 | 0.00 | 91 | 1008.3 |
| 20260506233101 | 56 | 211 | 10.0 | 23.0 | 0.00 | 0.00 | 0.00 | 91 | 1008.4 |
| 20260506232601 | 56 | 207 | 11.0 | 26.0 | 0.00 | 0.00 | 0.00 | 91 | 1008.4 |
| 20260506232100 | 56 | 210 | 13.0 | 29.0 | 0.00 | 0.00 | 0.00 | 91 | 1008.4 |
| 20260506231600 | 56 | 207 | 12.0 | 26.0 | 0.00 | 0.00 | 0.00 | 90 | 1008.5 |
| 20260506231100 | 56 | 209 | 11.0 | 27.0 | 0.00 | 0.00 | 0.00 | 90 | 1008.5 |
| 20260506230600 | 56 | 211 | 10.0 | 25.0 | 0.00 | 0.00 | 0.00 | 90 | 1008.5 |
| 20260506230100 | 56 | 211 | 8.0 | 19.0 | 0.00 | 0.00 | 0.00 | 89 | 1008.5 |
| 20260506225600 | 56 | 213 | 14.0 | 26.0 | 0.00 | 0.00 | 0.00 | 89 | 1008.9 |
| 20260506225059 | 57 | 209 | 13.0 | 30.0 | 0.00 | 0.00 | 0.00 | 88 | 1008.7 |
| 20260506224600 | 57 | 210 | 12.0 | 32.0 | 0.00 | 0.00 | 0.00 | 87 | 1008.9 |
| 20260506224100 | 58 | 212 | 13.0 | 27.0 | 0.00 | 0.00 | 0.00 | 85 | 1008.9 |
| 20260506223600 | 58 | 211 | 12.0 | 24.0 | 0.00 | 0.00 | 0.00 | 85 | 1008.8 |
| 20260506223100 | 58 | 216 | 10.0 | 23.0 | 0.00 | 0.00 | 0.00 | 84 | 1008.7 |
| 20260506222600 | 59 | 211 | 9.0 | 26.0 | 0.00 | 0.00 | 0.00 | 83 | 1008.6 |
| 20260506222100 | 59 | 203 | 12.0 | 25.0 | 0.00 | 0.00 | 0.00 | 83 | 1008.6 |
| 20260506221600 | 59 | 210 | 14.0 | 31.0 | 0.00 | 0.00 | 0.00 | 82 | 1008.6 |
| 20260506221100 | 59 | 204 | 15.0 | 30.0 | 0.00 | 0.00 | 0.00 | 82 | 1008.5 |
| 20260506220600 | 59 | 212 | 13.0 | 32.0 | 0.00 | 0.00 | 0.00 | 82 | 1008.7 |
| 20260506220100 | 59 | 202 | 13.0 | 32.0 | 0.00 | 0.00 | 0.00 | 82 | 1008.7 |
| 20260506215600 | 59 | 199 | 10.0 | 30.0 | 0.00 | 0.00 | 0.00 | 82 | 1008.8 |
| 20260506215100 | 59 | 214 | 16.0 | 28.0 | 0.00 | 0.00 | 0.00 | 83 | 1008.7 |
| 20260506214600 | 58 | 206 | 11.0 | 34.0 | 0.00 | 0.00 | 0.00 | 83 | 1008.8 |
| 20260506214100 | 59 | 202 | 13.0 | 35.0 | 0.00 | 0.00 | 0.00 | 82 | 1009.3 |
| 20260506213600 | 59 | 214 | 14.0 | 30.0 | 0.00 | 0.00 | 0.00 | 82 | 1009.0 |
| 20260506213100 | 59 | 215 | 11.0 | 30.0 | 0.00 | 0.00 | 0.00 | 81 | 1009.1 |
| 20260506212601 | 60 | 212 | 13.0 | 30.0 | 0.00 | 0.00 | 0.00 | 80 | 1009.1 |
| 20260506212059 | 60 | 207 | 10.0 | 28.0 | 0.00 | 0.00 | 0.00 | 80 | 1009.2 |
| 20260506211559 | 60 | 216 | 16.0 | 34.0 | 0.00 | 0.00 | 0.00 | 81 | 1008.9 |
| 20260506211100 | 60 | 213 | 19.0 | 32.0 | 0.00 | 0.00 | 0.00 | 81 | 1008.6 |
| 20260506210559 | 59 | 211 | 14.0 | 33.0 | 0.00 | 0.00 | 0.00 | 81 | 1008.8 |
| 20260506210059 | 59 | 214 | 12.0 | 28.0 | 0.00 | 0.00 | 0.00 | 81 | 1008.9 |
| 20260506205559 | 59 | 210 | 11.0 | 37.0 | 0.00 | 0.00 | 0.00 | 81 | 1009.0 |
| 20260506205100 | 59 | 213 | 17.0 | 30.0 | 0.00 | 0.00 | 0.00 | 81 | 1009.2 |
| 20260506204600 | 59 | 207 | 16.0 | 35.0 | 0.00 | 0.00 | 0.00 | 81 | 1009.2 |
| 20260506204059 | 59 | 214 | 18.0 | 36.0 | 0.00 | 0.00 | 0.00 | 80 | 1009.1 |
| 20260506203600 | 60 | 210 | 15.0 | 31.0 | 0.00 | 0.00 | 0.00 | 80 | 1009.3 |
| 20260506203100 | 60 | 201 | 14.0 | 32.0 | 0.00 | 0.00 | 0.00 | 79 | 1009.3 |
| 20260506202600 | 60 | 209 | 13.0 | 30.0 | 0.00 | 0.00 | 0.00 | 79 | 1009.2 |
| 20260506202059 | 60 | 209 | 13.0 | 26.0 | 0.00 | 0.00 | 0.00 | 79 | 1009.6 |
| 20260506201600 | 59 | 212 | 16.0 | 31.0 | 0.00 | 0.00 | 0.00 | 80 | 1009.6 |
| 20260506201059 | 59 | 216 | 12.0 | 29.0 | 0.00 | 0.00 | 0.00 | 80 | 1009.5 |
| 20260506200559 | 60 | 211 | 14.0 | 32.0 | 0.00 | 0.00 | 0.00 | 79 | 1009.7 |
| 20260506200059 | 60 | 205 | 14.0 | 31.0 | 0.00 | 0.00 | 0.00 | 79 | 1009.6 |
| 20260506195559 | 60 | 212 | 15.0 | 33.0 | 0.00 | 0.00 | 0.00 | 79 | 1009.9 |
| 20260506195059 | 60 | 208 | 11.0 | 36.0 | 0.00 | 0.00 | 0.00 | 79 | 1009.8 |
| 20260506194601 | 60 | 210 | 13.0 | 34.0 | 0.00 | 0.00 | 0.00 | 79 | 1009.7 |
| 20260506194100 | 60 | 213 | 14.0 | 33.0 | 0.00 | 0.00 | 0.00 | 79 | 1009.8 |
| 20260506193600 | 60 | 214 | 15.0 | 28.0 | 0.00 | 0.00 | 0.00 | 79 | 1010.0 |
| 20260506193059 | 60 | 216 | 15.0 | 35.0 | 0.00 | 0.00 | 0.00 | 79 | 1009.8 |
| 20260506192559 | 60 | 210 | 16.0 | 33.0 | 0.00 | 0.00 | 0.00 | 79 | 1009.8 |
| 20260506192059 | 60 | 207 | 15.0 | 30.0 | 0.00 | 0.00 | 0.00 | 79 | 1009.7 |
| 20260506191559 | 60 | 212 | 16.0 | 37.0 | 0.00 | 0.00 | 0.00 | 78 | 1009.9 |
| 20260506191059 | 61 | 209 | 14.0 | 33.0 | 0.00 | 0.00 | 0.00 | 77 | 1009.9 |
| 20260506190559 | 61 | 204 | 10.0 | 32.0 | 0.00 | 0.00 | 0.00 | 78 | 1010.0 |
| 20260506190100 | 61 | 210 | 13.0 | 33.0 | 0.00 | 0.00 | 0.00 | 78 | 1010.2 |
| 20260506185559 | 61 | 208 | 15.0 | 34.0 | 0.00 | 0.00 | 0.00 | 77 | 1010.1 |
| 20260506185101 | 61 | 201 | 12.0 | 29.0 | 0.00 | 0.00 | 0.00 | 77 | 1010.2 |
| 20260506184559 | 61 | 209 | 13.0 | 35.0 | 0.00 | 0.00 | 0.00 | 77 | 1010.6 |
| 20260506184059 | 61 | 214 | 15.0 | 31.0 | 0.00 | 0.00 | 0.00 | 76 | 1010.6 |
| 20260506183559 | 61 | 206 | 13.0 | 27.0 | 0.00 | 0.00 | 0.00 | 76 | 1010.6 |
| 20260506183059 | 61 | 201 | 11.0 | 33.0 | 0.00 | 0.00 | 0.00 | 76 | 1010.5 |
| 20260506182559 | 62 | 208 | 14.0 | 32.0 | 0.00 | 0.00 | 0.00 | 75 | 1010.9 |
| 20260506182100 | 63 | 201 | 17.0 | 30.0 | 0.00 | 0.00 | 0.00 | 73 | 1011.1 |
| 20260506181559 | 63 | 201 | 11.0 | 29.0 | 0.00 | 0.00 | 0.00 | 73 | 1011.1 |
| 20260506181059 | 64 | 212 | 16.0 | 35.0 | 0.00 | 0.00 | 0.00 | 72 | 1011.2 |
| 20260506180559 | 65 | 219 | 18.0 | 35.0 | 0.00 | 0.00 | 0.00 | 70 | 1011.3 |
| 20260506180059 | 66 | 210 | 18.0 | 36.0 | 0.00 | 0.00 | 0.00 | 70 | 1011.4 |
| 20260506175600 | 65 | 200 | 10.0 | 37.0 | 0.00 | 0.00 | 0.00 | 72 | 1011.2 |
| 20260506175100 | 64 | 209 | 14.0 | 35.0 | 0.00 | 0.00 | 0.00 | 72 | 1011.3 |
| 20260506174600 | 64 | 218 | 21.0 | 38.0 | 0.00 | 0.00 | 0.00 | 72 | 1011.3 |
| 20260506174059 | 64 | 208 | 13.0 | 36.0 | 0.00 | 0.00 | 0.00 | 72 | 1011.1 |
| 20260506173601 | 65 | 205 | 15.0 | 30.0 | 0.00 | 0.00 | 0.00 | 71 | 1011.0 |
| 20260506173100 | 64 | 206 | 13.0 | 29.0 | 0.00 | 0.00 | 0.00 | 74 | 1011.1 |
| 20260506172559 | 62 | 214 | 16.0 | 29.0 | 0.00 | 0.00 | 0.00 | 76 | 1011.4 |
| 20260506172059 | 62 | 208 | 14.0 | 28.0 | 0.00 | 0.00 | 0.00 | 75 | 1011.4 |
| 20260506171600 | 62 | 211 | 12.0 | 33.0 | 0.00 | 0.00 | 0.00 | 75 | 1011.4 |
| 20260506171100 | 62 | 214 | 15.0 | 30.0 | 0.00 | 0.00 | 0.00 | 75 | 1011.5 |
| 20260506170559 | 62 | 207 | 11.0 | 29.0 | 0.00 | 0.00 | 0.00 | 76 | 1011.6 |
| 20260506170059 | 62 | 208 | 15.0 | 36.0 | 0.00 | 0.00 | 0.00 | 76 | 1011.6 |
| 20260506165559 | 62 | 206 | 11.0 | 32.0 | 0.00 | 0.00 | 0.00 | 76 | 1011.8 |
| 20260506165059 | 62 | 209 | 12.0 | 30.0 | 0.00 | 0.00 | 0.00 | 75 | 1011.8 |
| 20260506164559 | 62 | 201 | 13.0 | 35.0 | 0.00 | 0.00 | 0.00 | 75 | 1012.0 |
| 20260506164059 | 63 | 214 | 17.0 | 34.0 | 0.00 | 0.00 | 0.00 | 73 | 1011.9 |
| 20260506163559 | 64 | 213 | 18.0 | 38.0 | 0.00 | 0.00 | 0.00 | 72 | 1012.0 |
| 20260506163059 | 65 | 211 | 15.0 | 27.0 | 0.00 | 0.00 | 0.00 | 72 | 1012.0 |
| 20260506162559 | 65 | 212 | 11.0 | 27.0 | 0.00 | 0.00 | 0.00 | 71 | 1012.1 |
| 20260506162100 | 65 | 206 | 12.0 | 32.0 | 0.00 | 0.00 | 0.00 | 71 | 1011.9 |
| 20260506161559 | 64 | 206 | 14.0 | 31.0 | 0.00 | 0.00 | 0.00 | 73 | 1012.2 |
| 20260506161059 | 64 | 212 | 11.0 | 33.0 | 0.00 | 0.00 | 0.00 | 74 | 1012.4 |
| 20260506160559 | 64 | 208 | 13.0 | 31.0 | 0.00 | 0.00 | 0.00 | 73 | 1012.4 |
| 20260506160059 | 64 | 214 | 16.0 | 33.0 | 0.00 | 0.00 | 0.00 | 73 | 1012.5 |
| 20260506155559 | 65 | 211 | 20.0 | 41.0 | 0.00 | 0.00 | 0.00 | 71 | 1012.4 |
| 20260506155059 | 64 | 218 | 14.0 | 36.0 | 0.00 | 0.00 | 0.00 | 73 | 1012.5 |
| 20260506154559 | 64 | 213 | 18.0 | 41.0 | 0.00 | 0.00 | 0.00 | 73 | 1012.8 |
| 20260506154059 | 64 | 216 | 16.0 | 36.0 | 0.00 | 0.00 | 0.00 | 74 | 1012.7 |
| 20260506153559 | 64 | 223 | 21.0 | 36.0 | 0.00 | 0.00 | 0.00 | 73 | 1012.7 |
| 20260506153100 | 64 | 216 | 15.0 | 32.0 | 0.00 | 0.00 | 0.00 | 74 | 1012.6 |
| 20260506152559 | 63 | 216 | 18.0 | 40.0 | 0.00 | 0.00 | 0.00 | 74 | 1012.7 |
| 20260506152059 | 64 | 217 | 19.0 | 35.0 | 0.00 | 0.00 | 0.00 | 73 | 1012.8 |
| 20260506151559 | 64 | 210 | 14.0 | 30.0 | 0.00 | 0.00 | 0.00 | 74 | 1012.8 |
| 20260506151059 | 63 | 202 | 10.0 | 28.0 | 0.00 | 0.00 | 0.00 | 75 | 1012.8 |
| 20260506150559 | 63 | 215 | 11.0 | 30.0 | 0.00 | 0.00 | 0.00 | 75 | 1012.8 |
| 20260506150059 | 63 | 219 | 18.0 | 30.0 | 0.00 | 0.00 | 0.00 | 73 | 1012.9 |
| 20260506145600 | 63 | 213 | 14.0 | 31.0 | 0.00 | 0.00 | 0.00 | 75 | 1012.7 |
| 20260506145059 | 63 | 212 | 16.0 | 36.0 | 0.00 | 0.00 | 0.00 | 75 | 1012.8 |
| 20260506144559 | 63 | 206 | 11.0 | 26.0 | 0.00 | 0.00 | 0.00 | 75 | 1012.6 |
| 20260506144059 | 63 | 212 | 11.0 | 27.0 | 0.00 | 0.00 | 0.00 | 73 | 1012.5 |
| 20260506143559 | 63 | 199 | 13.0 | 27.0 | 0.00 | 0.00 | 0.00 | 73 | 1012.7 |
| 20260506143100 | 64 | 212 | 21.0 | 38.0 | 0.00 | 0.00 | 0.00 | 71 | 1012.9 |
| 20260506142558 | 64 | 215 | 14.0 | 29.0 | 0.00 | 0.00 | 0.00 | 74 | 1012.7 |
| 20260506142059 | 63 | 217 | 18.0 | 35.0 | 0.00 | 0.00 | 0.00 | 74 | 1012.8 |
| 20260506141559 | 63 | 216 | 17.0 | 33.0 | 0.00 | 0.00 | 0.00 | 74 | 1012.9 |
| 20260506141059 | 63 | 210 | 13.0 | 33.0 | 0.00 | 0.00 | 0.00 | 75 | 1013.4 |
| 20260506140600 | 63 | 216 | 19.0 | 36.0 | 0.00 | 0.00 | 0.00 | 74 | 1013.0 |
| 20260506140059 | 63 | 216 | 15.0 | 31.0 | 0.00 | 0.00 | 0.00 | 74 | 1012.9 |
| 20260506135559 | 63 | 218 | 15.0 | 26.0 | 0.00 | 0.00 | 0.00 | 74 | 1012.9 |
| 20260506135058 | 63 | 225 | 15.0 | 30.0 | 0.00 | 0.00 | 0.00 | 76 | 1012.9 |
| 20260506134559 | 63 | 219 | 13.0 | 31.0 | 0.00 | 0.00 | 0.00 | 75 | 1012.9 |
| 20260506134059 | 63 | 207 | 15.0 | 30.0 | 0.00 | 0.00 | 0.00 | 75 | 1012.7 |
| 20260506133558 | 62 | 220 | 15.0 | 31.0 | 0.00 | 0.00 | 0.00 | 76 | 1012.7 |
| 20260506133059 | 62 | 221 | 16.0 | 37.0 | 0.00 | 0.00 | 0.00 | 76 | 1012.7 |
| 20260506132459 | 62 | 221 | 15.0 | 29.0 | 0.00 | 0.00 | 0.00 | 76 | 1012.6 |
| 20260506131959 | 62 | 214 | 13.0 | 29.0 | 0.00 | 0.00 | 0.00 | 76 | 1012.7 |
| 20260506131459 | 62 | 210 | 10.0 | 28.0 | 0.00 | 0.00 | 0.00 | 77 | 1012.6 |
| 20260506130958 | 62 | 213 | 14.0 | 29.0 | 0.00 | 0.00 | 0.00 | 76 | 1012.7 |
| 20260506130459 | 62 | 213 | 11.0 | 33.0 | 0.00 | 0.00 | 0.00 | 77 | 1012.7 |
| 20260506130000 | 62 | 218 | 14.0 | 29.0 | 0.00 | 0.00 | 0.00 | 78 | 1012.9 |
| 20260506125459 | 61 | 218 | 14.0 | 30.0 | 0.00 | 0.00 | 0.00 | 77 | 1012.6 |
| 20260506124959 | 62 | 213 | 14.0 | 27.0 | 0.00 | 0.00 | 0.00 | 77 | 1012.7 |
| 20260506124458 | 61 | 215 | 12.0 | 28.0 | 0.00 | 0.00 | 0.00 | 78 | 1012.8 |
| 20260506123959 | 62 | 218 | 13.0 | 29.0 | 0.00 | 0.00 | 0.00 | 78 | 1012.8 |
| 20260506123458 | 61 | 217 | 16.0 | 28.0 | 0.00 | 0.00 | 0.00 | 78 | 1012.7 |
| 20260506122959 | 61 | 209 | 14.0 | 34.0 | 0.00 | 0.00 | 0.00 | 80 | 1012.8 |
| 20260506122458 | 60 | 204 | 11.0 | 27.0 | 0.00 | 0.00 | 0.00 | 80 | 1013.0 |
| 20260506121958 | 60 | 206 | 16.0 | 29.0 | 0.00 | 0.00 | 0.00 | 80 | 1012.9 |
| 20260506121458 | 60 | 209 | 14.0 | 28.0 | 0.00 | 0.00 | 0.00 | 82 | 1013.1 |
| 20260506120959 | 59 | 216 | 12.0 | 24.0 | 0.00 | 0.00 | 0.00 | 83 | 1013.2 |
| 20260506120458 | 58 | 213 | 13.0 | 32.0 | 0.00 | 0.00 | 0.00 | 83 | 1013.2 |
| 20260506115958 | 59 | 212 | 14.0 | 27.0 | 0.00 | 0.00 | 0.00 | 82 | 1013.1 |
| 20260506115459 | 59 | 217 | 11.0 | 25.0 | 0.00 | 0.00 | 0.00 | 82 | 1013.2 |
| 20260506114958 | 59 | 217 | 14.0 | 25.0 | 0.00 | 0.00 | 0.00 | 81 | 1013.1 |
| 20260506114500 | 60 | 210 | 10.0 | 29.0 | 0.00 | 0.00 | 0.00 | 81 | 1013.1 |
| 20260506113959 | 60 | 210 | 13.0 | 30.0 | 0.00 | 0.00 | 0.00 | 82 | 1013.2 |
| 20260506113459 | 60 | 214 | 13.0 | 28.0 | 0.00 | 0.00 | 0.00 | 81 | 1013.3 |
| 20260506112959 | 60 | 216 | 17.0 | 29.0 | 0.00 | 0.00 | 0.00 | 81 | 1013.1 |
| 20260506112459 | 59 | 208 | 12.0 | 29.0 | 0.00 | 0.00 | 0.00 | 82 | 1013.0 |
| 20260506111959 | 60 | 212 | 13.0 | 29.0 | 0.00 | 0.00 | 0.00 | 82 | 1013.1 |
| 20260506111459 | 60 | 218 | 15.0 | 27.0 | 0.00 | 0.00 | 0.00 | 82 | 1013.2 |
| 20260506110959 | 59 | 216 | 11.0 | 26.0 | 0.00 | 0.00 | 0.00 | 83 | 1013.2 |
| 20260506110458 | 59 | 209 | 13.0 | 26.0 | 0.00 | 0.00 | 0.00 | 84 | 1013.1 |
| 20260506105959 | 58 | 206 | 11.0 | 26.0 | 0.00 | 0.00 | 0.00 | 85 | 1013.1 |
| 20260506105458 | 58 | 217 | 12.0 | 25.0 | 0.00 | 0.00 | 0.00 | 85 | 1013.1 |
| 20260506104959 | 58 | 210 | 11.0 | 30.0 | 0.00 | 0.00 | 0.00 | 85 | 1013.1 |
| 20260506104458 | 58 | 213 | 12.0 | 31.0 | 0.00 | 0.00 | 0.00 | 85 | 1013.0 |
| 20260506103959 | 58 | 215 | 10.0 | 30.0 | 0.00 | 0.00 | 0.00 | 85 | 1012.9 |
| 20260506103458 | 58 | 211 | 11.0 | 26.0 | 0.00 | 0.00 | 0.00 | 85 | 1012.9 |
| 20260506102958 | 58 | 211 | 14.0 | 31.0 | 0.00 | 0.00 | 0.00 | 85 | 1012.9 |
| 20260506102458 | 58 | 215 | 13.0 | 36.0 | 0.00 | 0.00 | 0.00 | 86 | 1012.8 |
| 20260506101959 | 58 | 210 | 10.0 | 27.0 | 0.00 | 0.00 | 0.00 | 86 | 1012.9 |
| 20260506101458 | 57 | 213 | 13.0 | 28.0 | 0.00 | 0.00 | 0.00 | 87 | 1012.9 |
| 20260506101018 | 57 | 209 | 11.0 | 26.0 | 0.00 | 0.00 | 0.00 | 87 | 1013.1 |
| 20260506100458 | 57 | 207 | 8.0 | 27.0 | 0.00 | 0.00 | 0.00 | 88 | 1012.9 |
| 20260506095958 | 57 | 207 | 13.0 | 27.0 | 0.00 | 0.00 | 0.00 | 88 | 1012.8 |
| 20260506095458 | 57 | 210 | 13.0 | 24.0 | 0.00 | 0.00 | 0.00 | 88 | 1012.9 |
| 20260506094958 | 57 | 212 | 12.0 | 26.0 | 0.00 | 0.00 | 0.00 | 88 | 1012.9 |
| 20260506094459 | 56 | 211 | 11.0 | 26.0 | 0.00 | 0.00 | 0.00 | 88 | 1013.1 |
| 20260506093958 | 56 | 218 | 11.0 | 24.0 | 0.00 | 0.00 | 0.00 | 88 | 1013.0 |
| 20260506093458 | 56 | 223 | 13.0 | 26.0 | 0.00 | 0.00 | 0.00 | 88 | 1013.0 |
| 20260506092958 | 56 | 217 | 12.0 | 28.0 | 0.00 | 0.00 | 0.00 | 88 | 1013.0 |
| 20260506092458 | 56 | 215 | 11.0 | 26.0 | 0.00 | 0.00 | 0.00 | 88 | 1013.1 |
| 20260506091958 | 56 | 218 | 12.0 | 29.0 | 0.00 | 0.00 | 0.00 | 88 | 1013.0 |
| 20260506091458 | 56 | 223 | 13.0 | 23.0 | 0.00 | 0.00 | 0.00 | 88 | 1013.0 |
| 20260506090958 | 56 | 219 | 13.0 | 26.0 | 0.00 | 0.00 | 0.00 | 88 | 1012.9 |
| 20260506090458 | 57 | 223 | 12.0 | 24.0 | 0.00 | 0.00 | 0.00 | 88 | 1013.2 |
| 20260506085958 | 57 | 210 | 13.0 | 31.0 | 0.00 | 0.00 | 0.00 | 88 | 1013.1 |
| 20260506085457 | 57 | 214 | 16.0 | 30.0 | 0.00 | 0.00 | 0.00 | 88 | 1012.8 |
| 20260506084957 | 57 | 220 | 11.0 | 28.0 | 0.00 | 0.00 | 0.00 | 88 | 1013.1 |
| 20260506084458 | 57 | 217 | 11.0 | 30.0 | 0.00 | 0.00 | 0.00 | 88 | 1013.2 |
| 20260506083957 | 57 | 217 | 12.0 | 24.0 | 0.00 | 0.00 | 0.00 | 88 | 1012.9 |
| 20260506083457 | 57 | 219 | 14.0 | 28.0 | 0.00 | 0.00 | 0.00 | 88 | 1013.1 |
| 20260506082958 | 57 | 222 | 13.0 | 28.0 | 0.00 | 0.00 | 0.00 | 88 | 1013.0 |
| 20260506082458 | 57 | 222 | 10.0 | 29.0 | 0.00 | 0.00 | 0.00 | 87 | 1013.0 |
| 20260506081958 | 57 | 213 | 14.0 | 28.0 | 0.00 | 0.00 | 0.00 | 88 | 1013.0 |
| 20260506081458 | 57 | 219 | 10.0 | 31.0 | 0.00 | 0.00 | 0.00 | 87 | 1013.1 |
| 20260506080958 | 57 | 219 | 17.0 | 32.0 | 0.00 | 0.00 | 0.00 | 88 | 1013.0 |
| 20260506080458 | 57 | 212 | 11.0 | 27.0 | 0.00 | 0.00 | 0.00 | 87 | 1013.0 |
| 20260506073458 | 57 | 215 | 15.0 | 36.0 | 0.00 | 0.00 | 0.00 | 88 | 1012.9 |
| 20260506072957 | 57 | 218 | 18.0 | 32.0 | 0.00 | 0.00 | 0.00 | 88 | 1013.0 |
| 20260506072457 | 57 | 216 | 15.0 | 31.0 | 0.00 | 0.00 | 0.00 | 88 | 1013.0 |
| 20260506071957 | 57 | 214 | 11.0 | 25.0 | 0.00 | 0.00 | 0.00 | 88 | 1013.0 |